User: anonymous   Login
Location: Kimberly
(42.5380°N, 114.3640°W)
Time: 04:39:33
(UTC-06:00)
Language:

N. Korean satellite - Orbit

View from above orbital plane
View from above orbital plane
View from above satellite
View from above satellite

Ground track
Ground track

The orbit data is extracted from the following two-line orbital elements,

1 39026U 12072A   18169.92531348 +.00001088 +00000-0 +43266-4 0  9994
2 39026 097.2101 180.2312 0037986 319.0513 040.7875 15.26764512305866
Epoch (UTC): 18 June 2018 22:12:27
Eccentricity: 0.0037986
inclination: 97.2101°
perigee height: 459 km
apogee height: 511 km
right ascension of ascending node: 180.2312°
argument of perigee: 319.0513°
revolutions per day: 15.26764512
mean anomaly at epoch: 40.7875°
orbit number at epoch: 30586

The dashed part of the orbit path shows where the satellite is in the earth's shadow,  

DLR